Location: Chandler
(33.3060°N, 111.8410°W)
Time: 01:51:36
(UTC-07:00)

Amateur Radio Satellites - All Passes

Search period start: 03 March 2015 01:21
Search period end: 04 March 2015 01:21
Location: Chandler, 33.3060°N, 111.8410°W

Satellite Date Start Highest point End Downlink Frequencies (MHz)
Time Altitude Azimuth
PHONESAT 2.4 03 Mar 01:24:18 01:25:23 11° 220° (SW) 01:26:19 2401.200-2431.200
DANDE 03 Mar 01:26:30 01:32:23 27° 282° (WNW) 01:37:00 436.750
Oscar 19 03 Mar 01:31:39 01:36:30 43° 99° (E) 01:41:24 437.125/150
ITAMSAT 1 03 Mar 01:32:56 01:34:58 13° 90° (E) 01:37:20 435.822/435.867
SWISSCUBE 03 Mar 01:38:48 01:43:28 54° 260° (W) 01:48:10 437.505
BEESAT 3 03 Mar 01:42:54 01:45:26 16° 50° (NE) 01:48:04 437.485
BEESAT 03 Mar 01:47:28 01:52:04 47° 261° (W) 01:56:41 436.000
KKS-1 03 Mar 01:54:15 01:58:15 33° 73° (ENE) 02:02:18 437.445
STARS 03 Mar 02:00:23 02:03:57 25° 71° (ENE) 02:07:34 437.465
BEESAT 2 03 Mar 02:08:07 02:11:32 25° 54° (NE) 02:14:58 435.950
AIST 2 03 Mar 02:09:35 02:10:07 10° 46° (NE) 02:10:52 435.215
SO-50 03 Mar 02:11:42 02:16:02 42° 304° (WNW) 02:20:31 436.795
ITUPSAT 1 03 Mar 02:15:54 02:19:49 24° 265° (W) 02:23:39 437.325
RS-15 03 Mar 02:16:41 02:24:18 20° 327° (NNW) 02:31:34 29.354- 29.394
JUGNU 03 Mar 02:17:06 02:21:02 18° 171° (S) 02:25:03 437.505
SRMSAT 03 Mar 02:21:31 02:23:13 11° 164° (SSE) 02:25:03 437.500
Gurwin Techsat 1B 03 Mar 02:43:58 02:49:10 54° 100° (E) 02:54:22 435.225
YUBILEINY 03 Mar 03:09:33 03:17:57 47° 77° (ENE) 03:26:24 435.215
ITAMSAT 1 03 Mar 03:09:48 03:14:57 61° 286° (WNW) 03:20:03 435.822/435.867
JAS-2 03 Mar 03:10:53 03:12:57 12° 86° (E) 03:15:46 435.910
Oscar 19 03 Mar 03:12:03 03:15:35 18° 292° (WNW) 03:18:55 437.125/150
BEESAT 3 03 Mar 03:19:53 03:23:43 38° 246° (WSW) 03:27:29 437.485
AO-7 03 Mar 03:25:41 03:31:50 24° 94° (E) 03:38:19 29.400- 29.500
KKS-1 03 Mar 03:31:54 03:35:00 18° 267° (W) 03:37:57 437.445
STARS 03 Mar 03:36:43 03:40:22 24° 265° (W) 03:43:53 437.465
AIST 2 03 Mar 03:45:04 03:49:19 73° 244° (WSW) 03:53:28 435.215
BEESAT 2 03 Mar 03:46:19 03:49:38 23° 248° (WSW) 03:52:49 435.950
HORYU 2 03 Mar 03:52:30 03:56:57 73° 102° (ESE) 04:01:24 437.375
JUGNU 03 Mar 04:05:00 04:09:27 22° 181° (S) 04:13:56 437.505
SRMSAT 03 Mar 04:07:35 04:11:46 20° 173° (S) 04:15:59 437.500
M-CUBED/EXP-1 PRIME 03 Mar 04:08:33 04:11:49 74° 253° (WSW) 04:15:12 437.505
AUBIESAT-1 03 Mar 04:10:08 04:13:25 83° 253° (WSW) 04:16:48 437.475
Gurwin Techsat 1B 03 Mar 04:25:30 04:28:45 16° 293° (WNW) 04:31:46 435.225
MOZHAYETS 4 03 Mar 04:44:28 04:49:00 70° 259° (W) 04:53:35
JAS-2 03 Mar 04:51:23 04:59:01 78° 102° (ESE) 05:06:54 435.910
YUBILEINY 03 Mar 05:06:56 05:14:31 32° 273° (W) 05:21:50 435.215
CUBESAT XI-V 03 Mar 05:10:01 05:12:20 14° 68° (ENE) 05:14:53 437.345
AO-7 03 Mar 05:17:02 05:25:12 63° 291° (WNW) 05:33:17 29.400- 29.500
PCSat 03 Mar 05:23:11 05:27:18 22° 53° (NE) 05:31:34 145.827
STRAND 1 03 Mar 05:26:40 05:29:20 15° 67° (ENE) 05:32:16 437.568
PRISM 03 Mar 05:40:55 05:44:31 31° 73° (ENE) 05:48:13 437.425
JUGNU 03 Mar 05:54:06 05:57:52 17° 191° (S) 06:01:36 437.505
SRMSAT 03 Mar 05:55:52 06:00:21 22° 182° (S) 06:04:50 437.500
JAS-2 03 Mar 06:38:13 06:43:26 20° 295° (WNW) 06:48:25 435.910
Cubesat XI-IV 03 Mar 06:40:12 06:45:34 72° 102° (ESE) 06:50:54 437.490
CUBESAT XI-V 03 Mar 06:44:52 06:49:24 48° 261° (W) 06:53:58 437.345
CUTE-I 03 Mar 06:49:01 06:54:24 86° 103° (ESE) 06:59:45 437.470
RS-15 03 Mar 06:53:16 07:01:56 25° 38° (NE) 07:11:16 29.354- 29.394
STRAND 1 03 Mar 07:03:05 07:08:08 55° 260° (W) 07:13:11 437.568
PCSat 03 Mar 07:05:50 07:10:57 43° 249° (WSW) 07:16:01 145.827
AIST 1 03 Mar 07:08:06 07:12:20 55° 94° (E) 07:16:38
AO-7 03 Mar 07:14:43 07:16:37 11° 307° (NW) 07:17:53 29.400- 29.500
PRISM 03 Mar 07:17:26 07:20:08 16° 267° (W) 07:22:40 437.425
SRMSAT 03 Mar 07:45:22 07:48:55 16° 192° (SSW) 07:52:23 437.500
HO-68 03 Mar 07:57:58 08:02:16 18° 91° (E) 08:07:00 435.675
Cubesat XI-IV 03 Mar 08:22:51 08:25:08 12° 295° (WNW) 08:27:07 437.490
SEEDS 03 Mar 08:27:30 08:30:07 16° 93° (E) 08:32:54 437.485
CANX-2 03 Mar 08:31:01 08:34:29 25° 95° (E) 08:38:03 2200.000
ISS 03 Mar 08:38:50 08:42:02 68° 316° (NW) 08:45:15 145.825
BRITE-PL 03 Mar 08:45:43 08:50:07 58° 100° (E) 08:54:15 437.365/2234.400
GOMX 1 03 Mar 08:47:30 08:51:29 37° 97° (E) 08:55:21 467.674
O/OREOS (USA 219) 03 Mar 08:48:22 08:52:29 36° 104° (ESE) 08:56:42 437.305
CUTE 1.7 + AOD 2 03 Mar 08:49:09 08:53:06 37° 98° (E) 08:57:04 437.475
RS-15 03 Mar 09:04:38 09:16:14 88° 63° (ENE) 09:28:21 29.354- 29.394
GONETS M04 03 Mar 09:18:10 09:26:54 70° 81° (E) 09:35:40
DOVE 4 03 Mar 09:19:05 09:23:15 60° 100° (E) 09:27:21 437.250
CINEMA 3 03 Mar 09:22:33 09:26:15 31° 97° (E) 09:29:59 145.822/145.860
Oscar 11 03 Mar 09:27:58 09:31:41 28° 96° (E) 09:35:26 145.826/435.025
AAUSAT CUBESAT 2 03 Mar 09:30:23 09:34:34 71° 100° (E) 09:38:45 437.432
COMPASS 1 03 Mar 09:33:28 09:37:42 89° 283° (WNW) 09:41:55 437.405
CUBEBUG 2 03 Mar 09:38:57 09:42:24 26° 96° (E) 09:45:57 437.445
UNISAT 6 03 Mar 09:41:17 09:44:55 26° 72° (ENE) 09:48:35 437.425
HO-68 03 Mar 09:43:30 09:50:40 70° 288° (WNW) 09:57:47 435.675
QB50P1 03 Mar 09:53:22 09:56:19 19° 71° (ENE) 09:59:24 145.935-145.965
DX 1 03 Mar 09:53:35 09:57:07 24° 96° (E) 10:00:41 434.975-435.025
QB50P2 03 Mar 09:57:12 10:00:23 21° 71° (ENE) 10:03:41 145.880/145.840
BUGSAT 1 03 Mar 10:00:27 10:03:05 17° 70° (ENE) 10:05:53 437.445
AISAT 03 Mar 10:02:02 10:03:10 11° 90° (E) 10:04:36 437.250
SEEDS 03 Mar 10:02:16 10:06:03 31° 287° (WNW) 10:09:47 437.485
TIGRISAT 03 Mar 10:05:21 10:09:37 49° 75° (ENE) 10:13:50 435.000
50 SAT 03 Mar 10:05:47 10:06:21 10° 91° (E) 10:07:12 437.505
CANX-2 03 Mar 10:07:02 10:10:21 22° 288° (WNW) 10:13:33 2200.000
VELOX 1 03 Mar 10:10:15 10:12:28 14° 92° (E) 10:14:55 145.980
DUCHIFAT 1 03 Mar 10:11:06 10:14:48 30° 73° (ENE) 10:18:34 145.980
HUMSAT D 03 Mar 10:13:42 10:16:52 22° 95° (E) 10:20:08 437.325/437.525
FUNcube-1 03 Mar 10:13:46 10:17:45 45° 99° (E) 10:21:47 145.935
ZACube-1 03 Mar 10:15:15 10:19:16 48° 99° (E) 10:23:20 437.345
ANTELSAT 03 Mar 10:19:11 10:23:36 76° 76° (ENE) 10:27:58 437.575/2403.000
UKube-1 03 Mar 10:21:43 10:25:57 51° 100° (E) 10:30:10 .
CUTE 1.7 + AOD 2 03 Mar 10:26:16 10:28:46 15° 290° (WNW) 10:31:05 437.475
GOMX 1 03 Mar 10:27:00 10:29:20 14° 292° (WNW) 10:31:26 467.674
O/OREOS (USA 219) 03 Mar 10:28:55 10:32:04 18° 300° (WNW) 10:35:07 437.305
ESTCUBE 1 03 Mar 10:29:44 10:30:30 11° 90° (E) 10:31:35 437.505/2401.250
POLYITAN 1 03 Mar 10:31:37 10:35:49 56° 75° (ENE) 10:40:02 437.675
POPSAT HIP 1 03 Mar 10:31:47 10:35:58 55° 75° (ENE) 10:40:10 437.405
DELFI C3 03 Mar 10:34:10 10:38:09 52° 285° (WNW) 10:42:08 145.870
UWE-3 03 Mar 10:35:56 10:40:04 71° 283° (WNW) 10:44:14 435.000/436.395/437.385
SO-50 03 Mar 10:46:47 10:51:39 56° 59° (ENE) 10:56:28 436.795
NANOSAT C BR1 03 Mar 10:54:35 10:58:52 77° 258° (WSW) 11:03:09 145.865
CUSAT 1 03 Mar 10:55:51 10:57:57 22° 78° (ENE) 11:00:13 437.405
CINEMA 3 03 Mar 11:00:40 11:03:16 16° 290° (WNW) 11:05:42 145.822/145.860
Oscar 11 03 Mar 11:04:30 11:07:43 20° 289° (WNW) 11:10:48 145.826/435.025
CUBEBUG 2 03 Mar 11:15:59 11:19:00 19° 289° (WNW) 11:21:55 437.445
GONETS M04 03 Mar 11:16:56 11:23:03 20° 276° (W) 11:28:41
UNISAT 6 03 Mar 11:18:15 11:21:43 21° 265° (W) 11:25:01 437.425
RS-15 03 Mar 11:19:41 11:27:42 20° 256° (WSW) 11:35:02 29.354- 29.394
QB50P1 03 Mar 11:28:15 11:32:02 29° 263° (W) 11:35:45 145.935-145.965
DX 1 03 Mar 11:29:47 11:33:17 23° 289° (WNW) 11:36:40 434.975-435.025
QB50P2 03 Mar 11:32:34 11:36:11 26° 264° (W) 11:39:44 145.880/145.840
BUGSAT 1 03 Mar 11:34:27 11:38:20 33° 262° (W) 11:42:13 437.445
AISAT 03 Mar 11:35:51 11:40:10 50° 285° (WNW) 11:44:25 437.250
HO-68 03 Mar 11:35:51 11:37:21 10° 302° (WNW) 11:38:17 435.675
CUBEBUG 1 03 Mar 11:36:39 11:41:01 63° 101° (E) 11:45:20 437.445
50 SAT 03 Mar 11:37:53 11:41:38 42° 285° (WNW) 11:45:23 437.505
VELOX 1 03 Mar 11:45:07 11:49:17 40° 287° (WNW) 11:53:25 145.980
TIGRISAT 03 Mar 11:45:13 11:46:42 11° 269° (W) 11:47:52 435.000
DUCHIFAT 1 03 Mar 11:47:41 11:50:43 18° 266° (W) 11:53:35 145.980
HUMSAT D 03 Mar 11:49:20 11:52:36 22° 288° (WNW) 11:55:46 437.325/437.525
FUNcube-1 03 Mar 11:52:15 11:53:47 11° 291° (WNW) 11:55:03 145.935
ZACube-1 03 Mar 11:54:08 11:55:18 11° 291° (WNW) 11:56:13 437.345
UKube-1 03 Mar 12:00:05 12:01:42 12° 293° (WNW) 12:03:05 .
ESTCUBE 1 03 Mar 12:03:21 12:07:49 56° 285° (WNW) 12:12:15 437.505/2401.250
SPROUT 03 Mar 12:06:11 12:09:58 30° 97° (E) 12:13:45 437.525
TISAT 1 03 Mar 12:07:28 12:11:03 27° 96° (E) 12:14:40 437.305
DANDE 03 Mar 12:13:45 12:15:38 18° 265° (W) 12:17:31 436.750
SO-50 03 Mar 12:29:10 12:31:48 14° 251° (WSW) 12:34:09 436.795
Oscar 19 03 Mar 12:44:27 12:49:14 42° 73° (ENE) 12:54:04 437.125/150
ITAMSAT 1 03 Mar 12:47:10 12:49:37 14° 66° (ENE) 12:52:21 435.822/435.867
SPROUT 03 Mar 13:42:52 13:45:52 18° 290° (WNW) 13:48:42 437.525
SWISSCUBE 03 Mar 13:43:21 13:48:04 54° 100° (E) 13:52:46 437.505
TISAT 1 03 Mar 13:43:39 13:46:43 19° 289° (WNW) 13:49:38 437.305
BEESAT 03 Mar 13:51:47 13:56:32 61° 100° (E) 14:01:17 436.000
Gurwin Techsat 1B 03 Mar 14:00:52 14:06:02 57° 74° (ENE) 14:11:16 435.225
ITUPSAT 1 03 Mar 14:19:42 14:24:30 67° 285° (WNW) 14:29:16 437.325
AO-7 03 Mar 14:20:49 14:26:58 25° 61° (ENE) 14:33:23 29.400- 29.500
ITAMSAT 1 03 Mar 14:23:30 14:28:39 61° 259° (WSW) 14:33:51 435.822/435.867
Oscar 19 03 Mar 14:25:11 14:28:48 18° 267° (W) 14:32:13 437.125/150
HORYU 2 03 Mar 14:46:59 14:51:05 39° 73° (ENE) 14:55:14 437.375
JAS-2 03 Mar 15:02:02 15:05:32 18° 64° (ENE) 15:09:30 435.910
ISS 03 Mar 15:10:12 15:12:37 19° 34° (NE) 15:15:04 145.825
SWISSCUBE 03 Mar 15:23:04 15:25:32 14° 293° (WNW) 15:27:44 437.505
KKS-1 03 Mar 15:25:38 15:30:03 65° 284° (WNW) 15:34:24 437.445
STARS 03 Mar 15:29:48 15:34:12 87° 100° (E) 15:38:34 437.465
BEESAT 03 Mar 15:32:02 15:33:56 12° 293° (WNW) 15:35:33 436.000
Gurwin Techsat 1B 03 Mar 15:43:35 15:46:27 14° 269° (W) 15:49:01 435.225
M-CUBED/EXP-1 PRIME 03 Mar 15:54:51 15:56:52 13° 97° (E) 15:59:10 437.505
AUBIESAT-1 03 Mar 15:56:25 15:57:59 12° 97° (E) 15:59:53 437.475
BEESAT 2 03 Mar 16:00:34 16:02:12 12° 109° (ESE) 16:04:05 435.950
YUBILEINY 03 Mar 16:04:44 16:13:14 62° 92° (E) 16:21:52 435.215
AO-7 03 Mar 16:10:53 16:19:11 67° 256° (WSW) 16:27:29 29.400- 29.500
VERMONT LUNAR 03 Mar 16:20:38 16:23:53 39° 148° (SSE) 16:27:11 437.305
HORYU 2 03 Mar 16:25:24 16:27:58 15° 268° (W) 16:30:19 437.375
PHONESAT 2.4 03 Mar 16:31:56 16:34:47 22° 144° (SE) 16:37:42 2401.200-2431.200
MOZHAYETS 4 03 Mar 16:44:00 16:48:17 37° 97° (E) 16:52:37
JAS-2 03 Mar 16:44:56 16:50:09 51° 262° (W) 16:55:55 435.910
ISS 03 Mar 16:46:09 16:49:07 32° 228° (SW) 16:52:03 145.825
BEESAT 3 03 Mar 17:09:12 17:13:16 77° 299° (WNW) 17:17:24 437.485
M-CUBED/EXP-1 PRIME 03 Mar 17:27:44 17:31:57 50° 289° (WNW) 17:36:27 437.505
AUBIESAT-1 03 Mar 17:28:47 17:33:04 55° 289° (WNW) 17:37:36 437.475
BEESAT 2 03 Mar 17:36:06 17:40:02 43° 302° (WNW) 17:44:01 435.950
AIST 2 03 Mar 17:39:00 17:43:11 66° 117° (ESE) 17:47:27 435.215
Cubesat XI-IV 03 Mar 17:57:59 18:03:20 78° 77° (ENE) 18:08:45 437.490
VERMONT LUNAR 03 Mar 17:58:28 18:01:47 41° 342° (NNW) 18:05:07 437.305
YUBILEINY 03 Mar 18:03:54 18:10:46 24° 291° (WNW) 18:17:18 435.215
CUTE-I 03 Mar 18:06:39 18:12:00 88° 252° (WSW) 18:17:26 437.470
PHONESAT 2.4 03 Mar 18:09:26 18:13:03 64° 337° (NNW) 18:16:40 2401.200-2431.200
MOZHAYETS 4 03 Mar 18:22:09 18:25:17 17° 290° (WNW) 18:28:14
CUBESAT XI-V 03 Mar 18:45:45 18:50:25 58° 100° (E) 18:55:01 437.345
AIST 1 03 Mar 18:57:05 19:01:25 56° 266° (W) 19:05:40
O/OREOS (USA 219) 03 Mar 19:02:22 19:06:34 35° 65° (ENE) 19:10:46 437.305
PRISM 03 Mar 19:02:29 19:06:44 85° 284° (WNW) 19:10:57 437.425
STRAND 1 03 Mar 19:17:48 19:22:57 71° 102° (ESE) 19:28:03 437.568
AIST 2 03 Mar 19:20:48 19:22:19 11° 314° (NW) 19:23:38 435.215
CANX-2 03 Mar 19:22:33 19:23:35 11° 69° (ENE) 19:24:54 2200.000
VERMONT LUNAR 03 Mar 19:37:19 19:40:13 24° 359° (N) 19:43:06 437.305
CUTE 1.7 + AOD 2 03 Mar 19:39:23 19:41:57 16° 70° (ENE) 19:44:39 437.475
PHONESAT 2.4 03 Mar 19:48:45 19:51:53 27° 354° (N) 19:55:02 2401.200-2431.200
GOMX 1 03 Mar 19:50:44 19:55:25 32° 73° (ENE) 20:00:01 467.674
BRITE-PL 03 Mar 19:50:58 19:56:24 49° 75° (ENE) 20:01:40 437.365/2234.400
PCSat 03 Mar 19:59:57 20:05:03 44° 111° (ESE) 20:10:12 145.827
HO-68 03 Mar 20:07:03 20:14:00 59° 71° (ENE) 20:21:01 435.675
AAUSAT CUBESAT 2 03 Mar 20:17:52 20:21:19 27° 73° (ENE) 20:24:52 437.432
DOVE 4 03 Mar 20:19:53 20:24:44 42° 74° (ENE) 20:29:25 437.250
Oscar 11 03 Mar 20:20:23 20:22:27 14° 69° (ENE) 20:24:44 145.826/435.025
CINEMA 3 03 Mar 20:20:37 20:24:09 21° 72° (ENE) 20:27:43 145.822/145.860
COMPASS 1 03 Mar 20:21:04 20:24:50 34° 74° (ENE) 20:28:38 437.405
GONETS M04 03 Mar 20:22:52 20:26:22 14° 82° (E) 20:30:36
CUBESAT XI-V 03 Mar 20:25:30 20:27:25 12° 293° (WNW) 20:29:01 437.345
CUBEBUG 2 03 Mar 20:34:24 20:36:56 15° 70° (ENE) 20:39:38 437.445
O/OREOS (USA 219) 03 Mar 20:42:42 20:45:44 17° 259° (WSW) 20:48:35 437.305
DX 1 03 Mar 20:46:43 20:48:48 14° 68° (ENE) 20:51:06 434.975-435.025
SEEDS 03 Mar 20:49:47 20:53:57 79° 258° (WSW) 20:58:09 437.485
CANX-2 03 Mar 20:55:04 20:59:10 49° 261° (W) 21:03:16 2200.000
STRAND 1 03 Mar 20:59:44 21:01:37 12° 295° (WNW) 21:03:09 437.568
FUNcube-1 03 Mar 21:06:14 21:09:36 23° 72° (ENE) 21:13:01 145.935
ZACube-1 03 Mar 21:07:49 21:11:17 24° 72° (ENE) 21:14:48 437.345
UKube-1 03 Mar 21:13:06 21:16:41 26° 71° (ENE) 21:20:20 .
CUTE 1.7 + AOD 2 03 Mar 21:13:51 21:17:39 32° 263° (W) 21:21:26 437.475
VERMONT LUNAR 03 Mar 21:15:23 21:18:39 37° 16° (NNE) 21:21:55 437.305
RS-15 03 Mar 21:16:51 21:22:13 16° 103° (ESE) 21:28:31 29.354- 29.394
DELFI C3 03 Mar 21:17:55 21:21:48 51° 76° (ENE) 21:25:44 145.870
PHONESAT 2.4 03 Mar 21:27:42 21:30:57 30° 11° (N) 21:34:12 2401.200-2431.200
UWE-3 03 Mar 21:28:49 21:33:11 54° 76° (ENE) 21:37:27 435.000/436.395/437.385
GOMX 1 03 Mar 21:28:57 21:33:31 27° 265° (W) 21:37:49 467.674
BRITE-PL 03 Mar 21:31:06 21:35:07 19° 268° (W) 21:38:48 437.365/2234.400
PCSat 03 Mar 21:44:31 21:48:43 22° 307° (NW) 21:52:47 145.827
AAUSAT CUBESAT 2 03 Mar 21:54:03 21:57:01 18° 267° (W) 21:59:50 437.432
Oscar 11 03 Mar 21:54:15 21:58:19 41° 261° (W) 22:02:24 145.826/435.025
HO-68 03 Mar 21:56:49 22:02:11 21° 267° (W) 22:07:15 435.675
CINEMA 3 03 Mar 21:56:55 22:01:13 31° 263° (W) 22:05:20 145.822/145.860
COMPASS 1 03 Mar 21:58:21 22:00:42 14° 268° (W) 22:02:52 437.405
DOVE 4 03 Mar 21:59:03 22:02:38 18° 267° (W) 22:05:56 437.250
TIGRISAT 03 Mar 22:02:49 22:04:52 14° 92° (E) 22:07:10 435.000
CUBEBUG 2 03 Mar 22:09:07 22:13:24 39° 262° (W) 22:17:32 437.445
GONETS M04 03 Mar 22:13:32 22:22:14 90° 307° (NW) 22:30:58
ANTELSAT 03 Mar 22:16:08 22:19:21 21° 95° (E) 22:22:43 437.575/2403.000
50 SAT 03 Mar 22:20:08 22:24:03 60° 76° (ENE) 22:27:58 437.505
DX 1 03 Mar 22:20:30 22:24:42 44° 260° (W) 22:28:55 434.975-435.025
POPSAT HIP 1 03 Mar 22:23:27 22:25:01 12° 91° (E) 22:26:50 437.405
POLYITAN 1 03 Mar 22:23:28 22:25:10 12° 91° (E) 22:27:06 437.675
CUBEBUG 1 03 Mar 22:29:00 22:32:53 31° 73° (ENE) 22:36:51 437.445
AISAT 03 Mar 22:29:17 22:33:47 85° 77° (ENE) 22:38:19 437.250
HUMSAT D 03 Mar 22:36:21 22:40:29 55° 260° (W) 22:44:34 437.325/437.525
VELOX 1 03 Mar 22:38:13 22:42:41 79° 258° (WSW) 22:47:11 145.980
FUNcube-1 03 Mar 22:42:14 22:45:52 24° 264° (W) 22:49:22 145.935
ZACube-1 03 Mar 22:44:04 22:47:37 23° 265° (W) 22:51:01 437.345
NANOSAT C BR1 03 Mar 22:44:39 22:47:58 23° 95° (E) 22:51:21 145.865
UKube-1 03 Mar 22:49:25 22:52:49 22° 265° (W) 22:56:08 .
VERMONT LUNAR 03 Mar 22:53:15 22:56:37 47° 211° (SSW) 22:59:57 437.305
TISAT 1 03 Mar 22:57:27 22:59:24 13° 69° (ENE) 23:01:34 437.305
SPROUT 03 Mar 22:57:42 23:00:06 15° 69° (ENE) 23:02:41 437.525
ESTCUBE 1 03 Mar 22:58:36 23:03:06 80° 77° (ENE) 23:07:39 437.505/2401.250
PHONESAT 2.4 03 Mar 23:06:02 23:09:40 85° 207° (SSW) 23:13:16 2401.200-2431.200
UWE-3 03 Mar 23:09:27 23:10:05 10° 270° (W) 23:10:22 435.000/436.395/437.385
UNISAT 6 03 Mar 23:13:07 23:17:26 77° 283° (WNW) 23:21:48 437.425
QB50P1 03 Mar 23:17:10 23:21:20 60° 100° (E) 23:25:29 145.935-145.965
BUGSAT 1 03 Mar 23:20:52 23:24:51 46° 99° (E) 23:28:47 437.445
QB50P2 03 Mar 23:21:27 23:25:40 70° 101° (E) 23:29:51 145.880/145.840
RS-15 03 Mar 23:22:25 23:33:22 87° 116° (ESE) 23:44:24 29.354- 29.394
DUCHIFAT 1 03 Mar 23:35:22 23:39:35 81° 281° (W) 23:43:46 145.980
DANDE 03 Mar 23:35:39 23:42:11 40° 96° (E) 23:47:21 436.750
TIGRISAT 03 Mar 23:37:50 23:41:50 39° 286° (WNW) 23:45:53 435.000
ANTELSAT 03 Mar 23:52:31 23:56:09 26° 288° (WNW) 23:59:46 437.575/2403.000
POPSAT HIP 1 03 Mar 23:57:12 00:01:11 41° 286° (WNW) 00:05:08 437.405
POLYITAN 1 03 Mar 23:57:23 00:01:21 40° 286° (WNW) 00:05:18 437.675
CUSAT 1 03 Mar 23:57:37 00:04:17 77° 98° (E) 00:09:19 437.405
CUBEBUG 1 04 Mar 00:06:10 00:09:21 18° 267° (W) 00:12:23 437.445
GONETS M04 04 Mar 00:15:42 00:20:29 15° 296° (WNW) 00:24:38
JUGNU 04 Mar 00:16:24 00:17:41 11° 164° (SSE) 00:19:07 437.505
NANOSAT C BR1 04 Mar 00:20:25 00:23:46 23° 289° (WNW) 00:27:00 145.865
TISAT 1 04 Mar 00:30:48 00:34:54 42° 261° (W) 00:38:58 437.305
SPROUT 04 Mar 00:31:52 00:35:55 38° 262° (W) 00:39:58 437.525
PHONESAT 2.4 04 Mar 00:45:52 00:47:46 14° 219° (SW) 00:49:35 2401.200-2431.200
SWISSCUBE 04 Mar 00:46:03 00:50:25 38° 73° (ENE) 00:54:52 437.505
BEESAT 04 Mar 00:54:18 00:58:47 43° 73° (ENE) 01:03:19 436.000
SO-50 04 Mar 00:57:25 01:01:44 46° 114° (ESE) 01:06:14 436.795
BUGSAT 1 04 Mar 00:58:34 00:59:58 11° 292° (WNW) 01:01:08 437.445
Oscar 19 04 Mar 01:00:55 01:04:37 21° 94° (E) 01:08:30 437.125/150
